Flag for Canada Weather past 2 weeks in Coral Harbour, Nunavut Territory, Canada

Now
32 °F

Light snow. Partly sunny.


Feels Like: 18 °F
Forecast: N/A
Wind: 26 mph from Northwest

Location: Coral Harbour

Current Time: Sep 21, 2014 at 3:45:37 PM

Latest Report: Sep 21, 2014 at 3:00 PM


Visibility: 15 mi

Pressure: 29.46 "Hg

Humidity: 75%

Dew point: 25 °F

Location of Coral HarbourLocation

Historic Weather in Coral Harbour — Graph

°F

Coral Harbour temperature yesterday

Maximum temperature yesterday: 32 °F (at 12:00 AM)
Minimum temperature yesterday: 25 °F (at 10:00 PM)
Average temperature yesterday: 29 °F

Past Weeks' High & Low Weather Summary

 TemperatureHumidityPressure
High43 °F (Sep 6, 2:00 PM)100% (Sep 9, 12:00 AM)29.97 "Hg (Sep 9, 12:00 AM)
Low21 °F (Sep 18, 2:00 AM)55% (Sep 11, 4:00 PM)29.28 "Hg (Sep 9, 10:00 AM)
Average33 °F80%29.70 "Hg
* Reported Sep 6 2:00 PM — Sep 21 2:00 PM, Coral Harbour, Weather by CustomWeather, © 2014

Note: Actual official high and low records may vary slightly from our data, if they occured in-between our weather recording intervals... More about our weather records

Advertising

Coral Harbour weather history for previous 24 hours

 ConditionsComfort  
Time TempWeatherWind HumidityBarometerVisibility
2:00 PM
Sep 21
36 °FLight snow. Low clouds.21 mph81%29.45 "Hg12 mi
1:50 PMN/ALight snow.17 mphN/AN/A12 mi
1:00 PM34 °FLight rain. Low clouds.13 mph93%29.45 "Hg15 mi
12:00 PM34 °FLight snow. Mostly cloudy.15 mph93%29.47 "Hg2 mi
11:00 AM32 °FLight snow. Low clouds.25 mph100%29.51 "Hg1 mi
10:00 AM32 °FSnow. Dense fog.25 mph93%29.55 "Hg1 mi
9:00 AM32 °FLight snow. Dense fog.24 mph100%29.60 "Hg1 mi
8:00 AM32 °FLight snow. Dense fog.18 mph93%29.65 "Hg1 mi
7:00 AM32 °FLight snow. Overcast.21 mph93%29.69 "Hg1 mi
6:00 AM32 °FLight snow. Overcast.18 mph93%29.72 "Hg2 mi
5:00 AM30 °FLight snow. Overcast.16 mph93%29.75 "Hg6 mi
4:00 AM30 °FLight snow. Overcast.13 mph93%29.77 "Hg10 mi
3:00 AM28 °FPassing clouds.3 mph86%29.81 "Hg15 mi
2:00 AM28 °FPassing clouds.3 mph86%29.81 "Hg15 mi
1:00 AM28 °FPassing clouds.2 mph86%29.83 "Hg15 mi
12:00 AM27 °FPassing clouds.3 mph86%29.83 "Hg15 mi
11:00 PM
Sep 20
25 °FPassing clouds.5 mph86%29.83 "Hg15 mi
10:00 PM25 °FPassing clouds.5 mph86%29.84 "Hg15 mi
9:00 PM27 °FPassing clouds.6 mph86%29.84 "Hg15 mi
8:00 PM27 °FPassing clouds.5 mph86%29.84 "Hg15 mi
7:00 PM27 °FLow clouds.5 mph86%29.84 "Hg15 mi
6:00 PM28 °FLow clouds.7 mph74%29.83 "Hg15 mi
5:00 PM30 °FMostly cloudy.7 mph75%29.82 "Hg15 mi
4:00 PM30 °FMostly cloudy.7 mph75%29.81 "Hg15 mi
3:00 PM32 °FPartly sunny.8 mph69%29.79 "Hg15 mi
Weather by CustomWeather, © 2014

See weather overviewHow to use our weather pages